Weather History for Beaufort, NC

Change the Weather History Date:

Wednesday, March 27, 2013

  Actual Average Record
Temperature  
Mean Temperature 46 °F -  
Max Temperature 57 °F 65 °F 77 °F (1989)
Min Temperature 37 °F 44 °F 25 °F (1955)
Degree Days  
Heating Degree Days 19    
Moisture  
Dew Point 29 °F    
Average Humidity 51    
Maximum Humidity 73    
Minimum Humidity 29    
Precipitation  
Precipitation 0.00 in - - ()
Sea Level Pressure  
Sea Level Pressure 30.12 in    
Wind  
Wind Speed 12 mph (NW)    
Max Wind Speed 20 mph    
Max Gust Speed 24 mph    
Visibility 10 miles    
Events      
Averages and records for this station are not official NWS values.
T = Trace of Precipitation, MM = Missing Value Source: NWS Daily Summary

Daily Weather History Graph

Daily Weather History Graph

Search for Another Location

Airport:

Trip Planner

Search our weather history database for the weather conditions in past years. The results will help you decide how hot, cold, wet, or windy it might be!

Date:

Astronomy

Mar. 27, 2013 Rise Set
Actual Time 7:00 AM EDT 7:24 PM EDT
Civil Twilight 6:34 AM EDT 7:49 PM EDT
Nautical Twilight 6:05 AM EDT 8:19 PM EDT
Astronomical Twilight 5:35 AM EDT 8:49 PM EDT
Moon 8:01 PM EDT 6:51 AM EDT
Length of Visible Light 13h 14m
Length of Day
12h 23m
Full, 100% of the Moon is Illuminated
Mar 27
Full
Apr 3
Last Quarter
Apr 10
New
Apr 18
First Quarter
Apr 25
Full

Hourly Weather History & Observations

Time (EDT) Temp. Windchill Dew Point Humidity Pressure Visibility Wind Dir Wind Speed Gust Speed Precip Events Conditions
12:58 AM 42.1 °F 37.7 °F 33.1 °F 70% 30.07 in 10.0 mi WNW 6.9 mph - N/A   Overcast
1:58 AM 42.1 °F 35.7 °F 32.0 °F 67% 30.08 in 10.0 mi WNW 11.5 mph - N/A   Scattered Clouds
2:58 AM 41.0 °F 33.5 °F 32.0 °F 70% 30.08 in 10.0 mi WNW 13.8 mph - N/A   Clear
3:58 AM 39.9 °F 32.1 °F 30.0 °F 68% 30.08 in 10.0 mi NW 13.8 mph - N/A   Clear
4:58 AM 39.9 °F 32.1 °F 30.0 °F 68% 30.09 in 10.0 mi NW 13.8 mph - N/A   Clear
5:58 AM 39.0 °F 31.4 °F 28.9 °F 67% 30.10 in 10.0 mi NW 12.7 mph - N/A   Clear
6:58 AM 37.9 °F 30.0 °F 30.0 °F 73% 30.12 in 10.0 mi NW 12.7 mph - N/A   Clear
7:58 AM 39.0 °F 30.6 °F 28.9 °F 67% 30.14 in 10.0 mi NW 15.0 mph - N/A   Clear
8:58 AM 42.1 °F 35.2 °F 30.0 °F 62% 30.16 in 10.0 mi NW 12.7 mph - N/A   Clear
9:58 AM 46.9 °F - 30.0 °F 52% 30.15 in 10.0 mi NNW 15.0 mph - N/A   Clear
10:58 AM 50.0 °F - 30.0 °F 46% 30.15 in 10.0 mi NNW 11.5 mph - N/A   Clear
11:58 AM 51.1 °F - 28.0 °F 41% 30.15 in 10.0 mi NW 9.2 mph - N/A   Clear
12:58 PM 53.1 °F - 26.1 °F 35% 30.14 in 10.0 mi NW 9.2 mph - N/A   Clear
1:56 PM 55.4 °F - 26.6 °F 33% 30.12 in 10.0 mi WNW 17.3 mph 24.2 mph N/A   Mostly Cloudy
1:58 PM 55.9 °F - 27.0 °F 33% 30.12 in 10.0 mi WNW 19.6 mph 24.2 mph N/A   Mostly Cloudy
2:58 PM 55.9 °F - 25.0 °F 30% 30.10 in 10.0 mi WNW 15.0 mph 19.6 mph N/A   Partly Cloudy
3:58 PM 55.9 °F - 24.1 °F 29% 30.09 in 10.0 mi WNW 16.1 mph - N/A   Clear
4:58 PM 55.9 °F - 25.0 °F 30% 30.09 in 10.0 mi WNW 16.1 mph - N/A   Partly Cloudy
5:58 PM 55.0 °F - 25.0 °F 31% 30.10 in 10.0 mi WNW 18.4 mph 23.0 mph N/A   Partly Cloudy
6:58 PM 52.0 °F - 26.1 °F 37% 30.12 in 10.0 mi NNW 12.7 mph - N/A   Clear
7:58 PM 48.9 °F - 28.9 °F 46% 30.13 in 10.0 mi NNW 6.9 mph - N/A   Clear
8:58 PM 46.9 °F - 30.9 °F 54% 30.16 in 10.0 mi NNW 5.8 mph - N/A   Mostly Cloudy
9:58 PM 48.0 °F - 30.0 °F 50% 30.18 in 10.0 mi NW 8.1 mph - N/A   Overcast
10:58 PM 46.0 °F 41.0 °F 30.0 °F 54% 30.19 in 10.0 mi NW 10.4 mph - N/A   Scattered Clouds
11:58 PM 45.0 °F 39.7 °F 30.0 °F 56% 30.19 in 10.0 mi NW 10.4 mph - N/A   Clear